Location: Le Petit-Vavre
(46.5081°N, 1.5239°E)
Time: 13:21:06
(UTC+00:00)

Cosmos 2360 Rocket - Pass Details

Date: 03 March 2021
Orbit: 833 x 846 km, 71.0° (Epoch: 20 April)

Event Time Altitude Azimuth Distance (km) Brightness Sun altitude
Rises 20:20:46 0° 236° (SW) 3,382 5.8 -27.5°
Reaches altitude 10° 20:23:28 10° 246° (WSW) 2,453 5.1 -28.0°
Maximum altitude 20:28:28 32° 309° (NW) 1,419 3.9 -28.7°
Drops below altitude 10° 20:33:30 10° 12° (NNE) 2,473 4.7 -29.5°
Sets 20:36:15 0° 22° (NNE) 3,414 5.4 -30.0°
